QPF
0.00 0.00 0.00 0.00 0.00 0.00 0.00 0.00 0.00 0.00 0.00 0.00 0.00 0.07 0.09 0.01 0.00 0.00 0.00 0.00 0.02 0.01 0.00 0.00 0.00 0.00 0.00 0.00 0.00 0.00 0.00 0.00 0.00 0.00 0.00 0.00 0.00 0.00 0.00 0.00 0.00 0.00 0.00
0.00 0.00 0.00 0.00 0.00 0.00 0.00 0.00 0.00 0.00 0.00 0.00 0.00 0.11 0.07 0.03 0.02 0.02 0.00 0.01 0.04 0.01 0.00 0.00 0.00 0.00 0.00 0.00 0.00 0.00 0.00 0.00 0.00 0.00 0.00 0.00 0.00 0.00 0.00 0.00 0.00 0.00 0.00
0.00 0.00 0.00 0.00 0.00 0.00 0.00 0.00 0.00 0.00 0.00 0.00 0.00 0.03 0.07 0.03 0.01 0.00 0.01 0.02 0.00 0.02 0.00 0.00 0.00 0.00 0.00 0.00 0.00 0.00 0.00 0.00 0.00 0.00 0.00 0.00 0.00 0.00 0.00 0.00 0.00 0.00 0.00
0.00 0.00 0.00 0.00 0.00 0.00 0.00 0.00 0.00 0.00 0.00 0.00 0.00 0.00 0.02 0.03 0.02 0.01 0.00 0.04 0.02 0.01 0.01 0.00 0.00 0.00 0.00 0.00 0.00 0.00 0.00 0.00 0.00 0.00 0.00 0.00 0.00 0.00 0.00 0.00 0.00 0.00 0.00
0.00 0.00 0.00 0.00 0.00 0.00 0.00 0.00 0.00 0.00 0.00 0.00 0.00 0.00 0.00 0.00 0.00 0.00 0.00 0.01 0.02 0.03 0.01 0.00 0.00 0.00 0.00 0.00 0.00 0.00 0.00 0.00 0.00 0.00 0.00 0.00 0.00 0.00 0.00 0.00 0.00 0.00 0.00
0.00 0.00 0.00 0.00 0.00 0.00 0.00 0.00 0.00 0.00 0.00 0.00 0.00 0.00 0.00 0.00 0.00 0.00 0.00 0.00 0.00 0.00 0.00 0.00 0.00 0.00 0.00 0.00 0.00 0.00 0.00 0.00 0.00 0.00 0.00 0.00 0.00 0.00 0.00 0.00 0.00 0.00 0.00
0.01 0.00 0.00 0.00 0.00 0.00 0.00 0.00 0.00 0.00 0.00 0.00 0.00 0.00 0.00 0.00 0.00 0.00 0.00 0.00 0.00 0.00 0.00 0.00 0.00 0.00 0.00 0.00 0.00 0.00 0.00 0.00 0.00 0.00 0.00 0.00 0.00 0.00 0.00 0.00 0.00 0.00 0.00
0.00 0.00 0.00 0.00 0.00 0.00 0.00 0.00 0.00 0.00 0.00 0.00 0.00 0.00 0.00 0.00 0.00 0.00 0.00 0.00 0.00 0.00 0.00 0.00 0.00 0.00 0.00 0.00 0.00 0.00 0.00 0.00 0.00 0.00 0.00 0.00 0.00 0.00 0.00 0.00 0.00 0.00 0.00
0.01 0.03 0.04 0.01 0.01 0.01 0.02 0.01 0.00 0.00 0.00 0.00 0.00 0.00 0.00 0.00 0.00 0.00 0.00 0.00 0.00 0.00 0.00 0.00 0.00 0.00 0.00 0.00 0.00 0.00 0.00 0.00 0.00 0.00 0.00 0.00 0.00 0.00 0.00 0.00 0.00 0.00 0.00
0.03 0.05 0.09 0.08 0.05 0.03 0.04 0.07 0.05 0.02 0.00 0.00 0.00 0.00 0.00 0.00 0.00 0.00 0.00 0.00 0.00 0.00 0.00 0.00 0.00 0.00 0.00 0.00 0.00 0.00 0.00 0.00 0.00 0.00 0.00 0.00 0.00 0.00 0.00 0.00 0.00 0.00 0.00
0.00 0.00 0.00 0.03 0.06 0.09 0.07 0.05 0.11 0.12 0.08 0.05 0.02 0.00 0.00 0.00 0.00 0.00 0.00 0.00 0.00 0.00 0.00 0.00 0.00 0.00 0.00 0.00 0.00 0.00 0.00 0.00 0.00 0.00 0.00 0.00 0.00 0.00 0.00 0.00 0.00 0.00 0.00
0.00 0.00 0.00 0.00 0.00 0.03 0.07 0.06 0.04 0.08 0.11 0.12 0.11 0.05 0.01 0.00 0.00 0.00 0.00 0.00 0.00 0.00 0.00 0.00 0.00 0.00 0.00 0.00 0.00 0.00 0.00 0.00 0.00 0.00 0.00 0.00 0.00 0.00 0.00 0.00 0.00 0.00 0.00
0.00 0.00 0.00 0.00 0.00 0.00 0.03 0.06 0.06 0.04 0.03 0.04 0.08 0.06 0.04 0.02 0.00 0.00 0.01 0.00 0.00 0.00 0.00 0.00 0.00 0.00 0.00 0.00 0.00 0.00 0.00 0.00 0.00 0.00 0.00 0.00 0.00 0.00 0.00 0.00 0.00 0.00 0.00
0.00 0.00 0.00 0.00 0.00 0.00 0.00 0.00 0.01 0.02 0.01 0.01 0.04 0.07 0.08 0.09 0.04 0.00 0.05 0.14 0.07 0.00 0.00 0.00 0.00 0.00 0.00 0.00 0.00 0.00 0.00 0.00 0.00 0.00 0.00 0.00 0.00 0.00 0.00 0.00 0.00 0.00 0.00
0.00 0.00 0.00 0.00 0.00 0.00 0.00 0.00 0.00 0.00 0.01 0.02 0.03 0.03 0.04 0.04 0.07 0.11 0.10 0.14 0.15 0.16 0.09 0.01 0.00 0.00 0.00 0.00 0.00 0.00 0.00 0.00 0.00 0.00 0.00 0.00 0.00 0.00 0.00 0.00 0.00 0.00 0.00
0.00 0.00 0.00 0.00 0.00 0.00 0.00 0.00 0.00 0.00 0.00 0.00 0.01 0.02 0.02 0.03 0.10 0.11 0.12 0.33 0.32 0.37 0.09 0.00 0.00 0.00 0.00 0.00 0.00 0.00 0.00 0.00 0.00 0.00 0.00 0.00 0.00 0.00 0.00 0.00 0.00 0.00 0.00
0.00 0.00 0.00 0.00 0.00 0.00 0.00 0.00 0.00 0.00 0.00 0.00 0.00 0.00 0.00 0.02 0.03 0.06 0.10 0.32 0.39 0.15 0.01 0.00 0.00 0.00 0.00 0.00 0.00 0.00 0.00 0.00 0.00 0.00 0.00 0.00 0.00 0.00 0.00 0.00 0.00 0.00 0.00
0.00 0.00 0.00 0.00 0.00 0.00 0.00 0.00 0.00 0.00 0.00 0.00 0.00 0.00 0.00 0.00 0.02 0.04 0.18 0.22 0.04 0.02 0.00 0.00 0.00 0.00 0.00 0.00 0.00 0.00 0.00 0.00 0.00 0.00 0.00 0.00 0.00 0.00 0.00 0.00 0.00 0.00 0.00
0.00 0.00 0.00 0.00 0.00 0.00 0.00 0.00 0.00 0.00 0.00 0.00 0.00 0.00 0.00 0.00 0.00 0.01 0.07 0.12 0.09 0.03 0.01 0.00 0.00 0.00 0.00 0.00 0.00 0.00 0.01 0.00 0.00 0.00 0.00 0.00 0.00 0.00 0.00 0.00 0.00 0.00 0.00
0.00 0.00 0.00 0.00 0.00 0.00 0.00 0.00 0.00 0.00 0.00 0.00 0.00 0.00 0.00 0.00 0.00 0.00 0.00 0.07 0.08 0.02 0.00 0.00 0.00 0.00 0.00 0.01 0.01 0.01 0.03 0.03 0.02 0.01 0.00 0.00 0.00 0.00 0.00 0.00 0.00 0.01 0.02
0.00 0.00 0.00 0.00 0.00 0.00 0.00 0.00 0.00 0.00 0.00 0.00 0.00 0.00 0.00 0.00 0.00 0.00 0.00 0.00 0.04 0.06 0.03 0.00 0.00 0.00 0.01 0.03 0.05 0.06 0.04 0.03 0.02 0.01 0.01 0.01 0.00 0.00 0.00 0.00 0.00 0.00 0.00
0.01 0.00 0.00 0.00 0.00 0.00 0.00 0.00 0.00 0.00 0.00 0.00 0.00 0.00 0.00 0.00 0.00 0.00 0.00 0.01 0.01 0.02 0.06 0.11 0.11 0.08 0.05 0.04 0.05 0.04 0.02 0.04 0.01 0.01 0.01 0.01 0.01 0.00 0.01 0.01 0.02 0.02 0.02
0.02 0.01 0.01 0.01 0.00 0.01 0.01 0.00 0.00 0.00 0.00 0.00 0.00 0.00 0.00 0.00 0.00 0.00 0.00 0.00 0.00 0.00 0.01 0.02 0.05 0.05 0.03 0.04 0.07 0.05 0.02 0.02 0.02 0.01 0.02 0.02 0.03 0.03 0.02 0.02 0.04 0.03 0.02
0.00 0.01 0.01 0.01 0.01 0.01 0.00 0.00 0.00 0.00 0.00 0.00 0.00 0.00 0.00 0.00 0.00 0.00 0.00 0.00 0.00 0.00 0.00 0.00 0.00 0.00 0.00 0.01 0.04 0.06 0.07 0.06 0.05 0.06 0.08 0.08 0.07 0.09 0.04 0.03 0.04 0.04 0.04
0.01 0.01 0.01 0.01 0.01 0.01 0.01 0.00 0.00 0.00 0.00 0.00 0.00 0.00 0.00 0.00 0.00 0.00 0.00 0.00 0.00 0.00 0.00 0.00 0.00 0.00 0.00 0.00 0.01 0.01 0.05 0.06 0.04 0.04 0.03 0.04 0.07 0.08 0.08 0.09 0.09 0.08 0.06
0.01 0.01 0.01 0.01 0.01 0.01 0.00 0.00 0.00 0.00 0.00 0.00 0.00 0.00 0.00 0.00 0.00 0.00 0.00 0.01 0.00 0.01 0.01 0.01 0.01 0.01 0.01 0.00 0.01 0.03 0.04 0.04 0.05 0.06 0.05 0.04 0.04 0.06 0.07 0.08 0.09 0.08 0.05
MSLP
1015.71 1016.25 1016.68 1017.08 1017.61 1018.25 1018.57 1018.82 1019.07 1019.19 1019.22 1019.53 1019.68 1019.93 1020.35 1020.32 1020.36 1020.76 1020.87 1020.81 1021.23 1021.38 1021.45 1021.47 1021.57 1021.54 1021.23 1020.79 1020.92 1020.90 1020.74 1020.55 1020.19 1019.61 1019.65 1019.32 1020.03 1020.00 1019.66 1019.37 1018.61 1018.17 1017.35
1015.27 1015.90 1016.18 1016.67 1017.13 1017.47 1017.95 1018.27 1018.59 1018.78 1018.84 1019.15 1019.34 1019.73 1019.91 1020.02 1020.12 1020.48 1020.60 1020.34 1020.82 1020.96 1021.01 1021.13 1021.17 1021.09 1021.35 1021.25 1020.97 1020.99 1020.63 1020.63 1020.59 1020.17 1019.80 1019.50 1019.43 1019.52 1019.30 1019.19 1018.29 1017.69 1017.52
1015.11 1015.55 1016.05 1016.28 1016.55 1016.91 1017.18 1017.72 1018.07 1018.34 1018.51 1018.56 1018.86 1019.26 1019.52 1019.58 1019.83 1019.97 1020.11 1020.24 1020.30 1020.44 1020.55 1020.62 1020.72 1020.80 1020.96 1020.70 1020.78 1020.49 1020.28 1020.35 1020.25 1019.97 1019.55 1019.21 1018.89 1018.92 1018.80 1018.41 1018.05 1017.55 1016.92
1013.79 1014.62 1015.41 1015.68 1016.09 1016.49 1016.51 1016.95 1017.34 1017.69 1018.02 1018.20 1018.39 1018.72 1018.99 1019.30 1019.35 1019.63 1019.57 1019.78 1019.87 1019.85 1020.05 1020.09 1020.25 1020.39 1020.56 1020.73 1020.80 1020.71 1020.62 1020.44 1019.92 1019.80 1019.28 1018.72 1018.37 1018.27 1018.33 1017.76 1017.23 1017.01 1016.67
1014.49 1014.33 1014.37 1015.02 1015.63 1015.95 1016.49 1016.43 1016.63 1016.97 1017.25 1017.59 1017.82 1018.07 1018.39 1018.60 1018.59 1018.93 1019.04 1019.07 1019.29 1019.37 1019.37 1019.52 1019.71 1019.94 1019.93 1020.54 1020.47 1020.32 1020.30 1020.15 1019.70 1019.17 1018.71 1018.33 1017.92 1017.69 1017.88 1017.70 1017.31 1016.77 1016.55
1015.67 1015.26 1014.69 1014.67 1014.94 1015.43 1015.86 1016.33 1016.08 1016.24 1016.55 1016.87 1017.12 1017.25 1017.47 1017.64 1017.76 1018.26 1018.57 1018.47 1018.57 1018.73 1018.84 1018.87 1019.04 1019.40 1020.09 1020.02 1020.23 1020.20 1020.60 1020.32 1020.10 1019.47 1018.72 1018.14 1018.13 1018.25 1017.64 1017.60 1017.30 1016.75 1016.24
1016.45 1015.57 1015.58 1015.40 1014.91 1015.02 1015.28 1015.44 1015.49 1015.58 1015.81 1016.08 1016.31 1016.52 1016.62 1016.78 1016.98 1017.47 1017.89 1018.13 1017.92 1017.88 1018.10 1018.24 1018.25 1018.11 1018.79 1019.27 1019.62 1019.92 1020.18 1020.17 1020.27 1019.49 1018.91 1018.50 1018.11 1018.13 1017.98 1017.87 1017.43 1017.08 1016.67
1017.61 1017.24 1017.03 1016.02 1015.48 1015.14 1015.14 1015.07 1014.98 1015.01 1015.09 1015.25 1015.39 1015.67 1015.86 1015.93 1016.20 1016.54 1016.97 1017.33 1017.28 1017.23 1017.21 1017.37 1017.61 1017.67 1017.68 1018.11 1018.45 1018.33 1018.47 1018.45 1018.42 1018.54 1018.45 1018.07 1017.71 1017.65 1017.59 1017.46 1017.32 1017.18 1016.54
1018.25 1018.17 1018.00 1017.54 1016.63 1015.41 1015.03 1014.89 1014.70 1014.59 1014.45 1014.49 1014.56 1014.81 1015.03 1015.19 1015.37 1015.80 1016.34 1016.49 1016.38 1016.29 1016.35 1016.37 1016.55 1016.77 1017.02 1017.49 1017.68 1017.35 1017.16 1016.70 1016.47 1017.08 1017.27 1017.29 1017.52 1017.65 1017.71 1017.33 1016.60 1016.07 1015.12
1017.95 1017.99 1018.15 1017.80 1017.34 1016.56 1015.78 1015.16 1014.67 1014.25 1014.00 1013.94 1013.72 1013.91 1014.15 1014.39 1014.73 1015.13 1015.66 1015.62 1015.20 1015.09 1015.23 1015.41 1015.56 1015.78 1016.07 1016.52 1016.96 1016.80 1016.38 1015.84 1015.96 1015.77 1016.47 1016.59 1016.80 1016.53 1017.03 1017.06 1016.31 1015.51 1014.63
1018.15 1017.94 1017.77 1017.61 1017.31 1016.57 1015.94 1015.73 1015.35 1014.29 1013.49 1013.29 1013.14 1013.25 1013.30 1013.43 1013.83 1014.23 1014.64 1014.78 1014.01 1013.78 1013.77 1013.61 1013.87 1014.31 1015.07 1015.68 1015.92 1015.85 1015.36 1015.39 1015.27 1015.42 1015.29 1015.04 1014.68 1014.56 1014.48 1014.99 1015.11 1014.85 1013.96
1018.28 1018.06 1017.80 1017.53 1017.31 1016.98 1016.64 1016.20 1015.83 1014.64 1013.78 1013.17 1013.07 1012.91 1012.46 1012.57 1012.69 1013.19 1013.57 1013.91 1013.65 1013.19 1012.72 1012.49 1012.64 1013.08 1013.58 1014.21 1014.70 1014.83 1014.99 1015.27 1014.99 1014.28 1013.74 1013.35 1013.13 1012.87 1012.71 1012.71 1013.07 1013.57 1013.49
1018.28 1018.03 1017.77 1017.55 1017.08 1016.65 1016.30 1015.77 1015.27 1014.56 1013.63 1012.93 1012.63 1012.67 1012.30 1011.63 1011.14 1011.52 1012.15 1012.63 1013.04 1013.38 1012.38 1012.00 1012.19 1012.59 1012.99 1013.29 1013.53 1013.97 1014.43 1014.67 1014.25 1013.39 1012.71 1012.38 1012.30 1012.09 1012.05 1012.10 1012.11 1012.55 1012.95
1018.29 1017.93 1017.46 1017.05 1016.64 1016.24 1015.69 1014.95 1014.37 1014.32 1013.82 1013.27 1011.99 1012.29 1011.98 1011.61 1011.05 1010.12 1011.03 1011.75 1012.28 1012.51 1012.23 1012.17 1011.97 1012.10 1012.14 1012.11 1012.36 1012.99 1013.44 1013.01 1012.55 1012.02 1011.66 1011.51 1011.49 1011.42 1011.29 1011.52 1011.49 1011.45 1011.48
1018.01 1017.55 1017.16 1016.56 1016.00 1015.77 1015.44 1014.91 1014.94 1014.55 1014.19 1014.24 1014.21 1013.38 1012.25 1012.03 1011.23 1011.57 1011.82 1010.76 1010.90 1011.10 1011.23 1011.07 1010.87 1010.73 1010.59 1010.69 1010.75 1010.94 1010.99 1011.40 1011.50 1011.25 1010.87 1010.57 1010.52 1010.53 1010.47 1010.73 1010.54 1010.57 1010.45
1018.26 1017.41 1016.70 1016.45 1016.10 1015.50 1015.03 1014.42 1014.37 1014.33 1014.41 1014.43 1014.46 1014.03 1012.45 1013.23 1012.82 1012.28 1011.98 1011.63 1011.23 1010.84 1011.22 1010.20 1009.37 1009.11 1008.83 1008.83 1009.10 1009.32 1009.52 1009.51 1009.49 1009.82 1009.89 1009.77 1009.58 1009.49 1009.53 1009.70 1009.71 1009.67 1009.57
1019.21 1018.29 1017.40 1016.55 1015.78 1015.36 1014.82 1014.19 1013.29 1012.81 1012.87 1013.00 1012.93 1012.71 1012.98 1012.59 1012.61 1012.07 1011.73 1011.63 1010.99 1011.16 1010.06 1009.53 1008.83 1008.14 1007.78 1007.87 1008.14 1008.51 1008.49 1008.53 1008.90 1008.86 1008.75 1008.63 1008.57 1008.52 1008.75 1008.83 1008.63 1008.67 1008.60
1019.15 1018.57 1017.79 1016.64 1015.82 1015.08 1014.56 1014.06 1013.57 1012.95 1012.24 1011.91 1011.97 1012.07 1011.79 1011.73 1011.70 1011.43 1011.48 1010.98 1010.29 1010.31 1009.15 1008.51 1007.87 1007.29 1007.29 1007.48 1007.74 1007.80 1007.72 1007.89 1007.90 1008.16 1008.34 1008.33 1007.84 1007.61 1007.55 1007.62 1007.68 1007.67 1007.65
1018.70 1017.77 1016.87 1016.04 1015.44 1015.20 1014.89 1014.41 1013.85 1013.38 1012.86 1012.08 1011.47 1011.21 1010.97 1010.77 1010.73 1010.44 1010.26 1009.43 1009.08 1008.84 1007.93 1007.89 1006.70 1006.59 1006.48 1006.73 1006.75 1006.77 1006.72 1006.75 1006.84 1006.93 1007.05 1007.25 1007.27 1006.87 1006.71 1006.78 1006.80 1006.87 1006.87
1018.65 1018.00 1017.49 1016.50 1015.60 1014.82 1014.28 1013.93 1013.50 1013.18 1012.75 1011.95 1011.16 1010.60 1010.28 1009.97 1009.72 1009.01 1008.92 1008.41 1008.54 1008.23 1007.10 1006.27 1005.64 1005.67 1005.45 1005.69 1005.85 1006.01 1006.36 1006.51 1006.18 1006.20 1006.44 1006.63 1006.72 1006.89 1006.41 1006.19 1006.13 1006.00 1006.15
1018.45 1017.47 1016.81 1016.00 1015.01 1014.41 1013.83 1013.79 1013.67 1013.10 1012.39 1011.85 1011.10 1010.55 1010.71 1010.76 1009.81 1009.02 1008.15 1007.56 1007.11 1006.90 1006.66 1005.77 1004.95 1005.08 1004.71 1004.71 1005.00 1005.31 1005.62 1005.71 1005.90 1005.85 1005.74 1005.68 1005.98 1006.31 1006.44 1006.47 1006.45 1006.35 1006.39
1017.97 1017.19 1016.59 1015.87 1015.18 1014.45 1013.77 1013.30 1012.89 1012.46 1011.95 1011.36 1010.62 1009.88 1010.05 1009.80 1009.25 1008.55 1007.73 1006.69 1005.95 1005.91 1005.73 1005.50 1004.78 1004.97 1004.79 1004.31 1004.31 1004.48 1004.91 1005.15 1005.10 1005.27 1005.19 1005.05 1005.10 1005.57 1005.82 1005.91 1005.88 1006.03 1005.97
1017.43 1016.78 1016.15 1015.52 1014.88 1014.20 1013.60 1012.87 1012.17 1011.65 1011.23 1010.75 1010.29 1009.82 1009.59 1009.05 1008.73 1008.47 1007.79 1006.98 1006.73 1006.59 1006.71 1006.56 1005.90 1005.61 1005.56 1005.18 1005.36 1005.48 1005.51 1005.18 1004.97 1004.79 1004.59 1004.39 1004.48 1004.75 1004.88 1005.09 1005.36 1005.47 1005.59
1017.65 1016.89 1016.10 1015.37 1014.69 1013.95 1013.19 1012.39 1011.77 1011.36 1011.02 1010.55 1010.16 1009.78 1009.42 1009.11 1009.02 1008.85 1008.54 1008.10 1007.71 1007.16 1006.99 1007.08 1006.65 1006.33 1006.02 1005.94 1005.92 1006.28 1006.33 1005.70 1005.76 1005.37 1005.11 1005.04 1004.59 1004.61 1004.89 1005.05 1005.21 1005.23 1005.45
1017.84 1017.07 1016.20 1015.29 1014.39 1013.60 1012.89 1012.25 1011.63 1011.17 1010.75 1010.31 1009.92 1009.68 1009.32 1009.16 1009.17 1008.95 1008.56 1008.35 1007.98 1007.67 1007.69 1007.46 1007.57 1007.14 1006.70 1006.75 1006.70 1006.39 1006.35 1005.61 1005.70 1005.57 1005.28 1005.00 1005.06 1005.17 1005.14 1005.24 1005.45 1005.33 1005.20
1017.84 1017.21 1016.32 1015.36 1014.35 1013.39 1012.63 1011.93 1011.39 1010.96 1010.54 1010.10 1009.79 1009.61 1009.35 1009.15 1008.96 1008.74 1008.62 1008.53 1008.44 1008.37 1008.46 1008.34 1008.28 1007.85 1007.27 1007.46 1007.14 1006.56 1006.04 1005.91 1005.82 1005.13 1004.89 1004.89 1005.19 1005.31 1005.93 1006.08 1006.02 1006.05 1005.96
Thickness
5785 5785 5784 5784 5782 5779 5778 5778 5778 5779 5780 5780 5781 5781 5779 5779 5780 5779 5779 5782 5779 5779 5781 5781 5781 5783 5786 5791 5791 5791 5791 5792 5786 5798 5803 5807 5801 5802 5805 5808 5814 5817 5822
5784 5783 5784 5784 5783 5783 5780 5781 5780 5780 5781 5780 5782 5781 5782 5782 5783 5781 5781 5784 5781 5781 5783 5784 5783 5787 5785 5788 5790 5789 5793 5794 5790 5786 5798 5803 5805 5806 5807 5809 5816 5820 5820
5782 5782 5782 5783 5784 5783 5784 5783 5783 5782 5782 5783 5783 5782 5783 5786 5785 5785 5785 5784 5785 5786 5787 5787 5787 5787 5786 5791 5791 5793 5796 5796 5796 5794 5795 5805 5809 5810 5810 5814 5817 5820 5823
5790 5786 5782 5784 5784 5784 5788 5787 5786 5786 5784 5785 5786 5786 5787 5787 5788 5788 5789 5787 5788 5789 5790 5792 5790 5789 5789 5789 5790 5791 5792 5792 5796 5795 5798 5803 5809 5812 5812 5813 5816 5822 5822
5780 5783 5785 5783 5783 5784 5782 5787 5789 5789 5789 5788 5788 5789 5789 5791 5793 5791 5791 5792 5791 5790 5792 5793 5793 5793 5792 5792 5793 5794 5794 5793 5796 5798 5798 5802 5805 5807 5804 5811 5811 5817 5818
5764 5769 5776 5780 5782 5781 5780 5778 5785 5788 5789 5790 5790 5791 5792 5795 5797 5794 5793 5794 5794 5793 5791 5794 5796 5794 5792 5791 5790 5790 5790 5790 5788 5791 5795 5797 5798 5798 5807 5806 5808 5809 5805
5750 5761 5763 5768 5775 5778 5779 5781 5783 5785 5786 5787 5789 5791 5794 5797 5798 5795 5793 5795 5796 5797 5796 5796 5798 5803 5799 5798 5794 5792 5790 5789 5788 5790 5790 5792 5794 5796 5801 5798 5803 5804 5804
5730 5736 5743 5756 5765 5770 5773 5776 5779 5782 5784 5786 5789 5791 5793 5798 5798 5796 5793 5795 5797 5799 5800 5800 5800 5802 5805 5801 5798 5801 5800 5800 5797 5794 5793 5796 5798 5799 5800 5800 5800 5799 5807
5716 5720 5727 5733 5744 5758 5764 5769 5774 5776 5781 5784 5788 5789 5792 5796 5796 5794 5790 5793 5796 5800 5801 5803 5804 5804 5805 5799 5798 5800 5802 5806 5807 5805 5803 5803 5801 5799 5798 5798 5798 5799 5802
5710 5713 5715 5721 5727 5735 5745 5756 5765 5772 5777 5781 5786 5789 5790 5793 5794 5791 5787 5792 5796 5800 5803 5803 5803 5805 5804 5799 5796 5797 5798 5805 5803 5807 5806 5804 5803 5802 5801 5798 5801 5799 5804
5698 5703 5708 5711 5716 5724 5729 5739 5747 5760 5772 5776 5780 5784 5788 5792 5792 5788 5786 5790 5799 5802 5803 5808 5812 5808 5802 5797 5796 5801 5805 5806 5804 5803 5807 5810 5813 5813 5812 5808 5806 5807 5808
5683 5689 5695 5701 5705 5710 5716 5724 5731 5745 5756 5765 5769 5774 5786 5789 5789 5787 5783 5783 5791 5795 5801 5809 5813 5810 5804 5798 5797 5802 5799 5795 5801 5806 5810 5811 5813 5816 5820 5822 5818 5813 5812
5666 5672 5680 5687 5695 5702 5708 5714 5722 5732 5745 5755 5760 5763 5771 5785 5794 5790 5785 5782 5781 5783 5797 5802 5801 5800 5799 5798 5797 5797 5793 5794 5798 5802 5807 5811 5813 5817 5819 5817 5818 5815 5811
5648 5655 5665 5673 5682 5691 5701 5710 5719 5722 5730 5737 5753 5754 5762 5771 5781 5795 5788 5782 5776 5779 5785 5786 5791 5794 5797 5802 5801 5794 5794 5799 5802 5806 5809 5813 5815 5814 5814 5813 5810 5812 5811
5632 5641 5648 5658 5669 5678 5686 5695 5699 5707 5715 5718 5722 5734 5747 5752 5767 5764 5766 5780 5782 5782 5781 5784 5788 5793 5797 5800 5802 5801 5802 5800 5799 5804 5808 5810 5810 5810 5810 5810 5810 5807 5804
5611 5622 5632 5640 5649 5660 5670 5682 5688 5692 5696 5701 5705 5712 5731 5730 5738 5746 5751 5757 5763 5768 5769 5781 5789 5793 5798 5801 5801 5800 5801 5802 5805 5804 5805 5808 5809 5809 5808 5806 5806 5804 5801
5574 5591 5604 5617 5630 5639 5650 5664 5676 5690 5695 5700 5704 5707 5705 5717 5724 5733 5738 5742 5751 5753 5772 5777 5785 5791 5797 5799 5797 5795 5796 5800 5801 5802 5805 5807 5809 5810 5805 5802 5805 5804 5802
5547 5559 5574 5592 5605 5618 5631 5644 5657 5669 5682 5694 5700 5702 5710 5711 5717 5723 5726 5733 5749 5751 5769 5776 5782 5789 5791 5791 5790 5791 5794 5795 5798 5797 5797 5800 5806 5808 5806 5804 5803 5801 5801
5530 5540 5553 5568 5582 5593 5604 5615 5631 5644 5658 5674 5685 5693 5700 5706 5709 5717 5721 5738 5743 5751 5763 5766 5781 5784 5787 5788 5790 5791 5793 5796 5799 5800 5800 5799 5800 5804 5804 5803 5803 5797 5798
5513 5518 5522 5534 5551 5568 5583 5596 5609 5623 5635 5654 5668 5680 5687 5697 5706 5719 5721 5729 5729 5739 5756 5765 5774 5776 5784 5786 5786 5786 5784 5786 5793 5796 5796 5795 5795 5793 5798 5799 5800 5799 5796
5494 5504 5508 5515 5528 5542 5558 5570 5582 5597 5615 5630 5649 5661 5662 5671 5687 5701 5712 5721 5725 5734 5743 5755 5766 5768 5775 5780 5781 5779 5778 5781 5782 5786 5789 5791 5789 5785 5786 5786 5786 5787 5785
5479 5486 5491 5497 5503 5514 5529 5545 5562 5577 5593 5611 5629 5646 5648 5660 5674 5687 5700 5712 5722 5729 5735 5744 5753 5754 5762 5769 5773 5773 5774 5774 5775 5777 5779 5783 5783 5780 5779 5778 5778 5776 5775
5466 5472 5478 5483 5488 5495 5506 5521 5540 5558 5574 5591 5607 5622 5635 5649 5661 5671 5682 5694 5702 5707 5710 5717 5726 5733 5737 5746 5747 5751 5753 5760 5764 5765 5770 5772 5775 5775 5773 5769 5767 5765 5763
5448 5455 5463 5469 5474 5481 5490 5503 5516 5531 5548 5566 5582 5597 5612 5626 5636 5647 5656 5666 5677 5687 5694 5698 5707 5712 5719 5724 5728 5728 5730 5738 5740 5745 5750 5752 5757 5758 5756 5754 5752 5751 5748
5431 5437 5445 5454 5462 5469 5477 5485 5495 5507 5523 5540 5557 5571 5586 5601 5613 5626 5638 5647 5657 5667 5673 5681 5685 5691 5699 5702 5705 5712 5716 5724 5724 5726 5731 5736 5736 5736 5736 5735 5732 5735 5735
5417 5421 5428 5437 5448 5458 5466 5474 5480 5487 5499 5517 5534 5549 5564 5578 5593 5606 5619 5628 5636 5644 5649 5657 5663 5672 5680 5682 5687 5695 5703 5708 5707 5714 5717 5720 5719 5718 5713 5711 5711 5710 5711